Regional Weather Roundup
Issued by NWS Mt. Holly, NJ

Home | Current Version | Previous Version | Text Only | Print | Product List | Glossary On
Versions: 1 2 3 4 5 6 7 8 9 10 11 12 13 14 15 16 17 18 19 20 21 22 23 24 25 26 27
000
ASUS41 KPHI 171812
RWRPHI

REGIONAL WEATHER ROUNDUP
NATIONAL WEATHER SERVICE MOUNT HOLLY NJ
200 PM EDT THU AUG 17 2017

NOTE:  "FAIR" INDICATES FEW OR NO CLOUDS BELOW 12,000 FEET WITH NO
SIGNIFICANT WEATHER AND/OR OBSTRUCTIONS TO VISIBILITY.

 * = STATION DOES NOT REPORT PRECIPITATION (E.G. RAIN, SNOW, ETC.)
        OR FOG.

NJZ015>026-171900-
SOUTHERN NEW JERSEY

CITY           SKY/WX    TMP DP  RH WIND       PRES   REMARKS
POMONA         MOSUNNY   83  71  67 E10G18    30.02F
6HR MIN TEMP:  72; 6HR MAX TEMP:  85;

WILDWOOD*      SUNNY     84  74  71 S10       30.03F HX  91
MILLVILLE      SUNNY     88  70  55 VRB6      30.01F HX  93
WRIGHTSTOWN    SUNNY     84  67  55 CALM      29.98F
MOUNT HOLLY    PTSUNNY   86  68  54 VRB3      30.00F
TRENTON        MOSUNNY   84  64  50 SW8       30.01F
6HR MIN TEMP:  69; 6HR MAX TEMP:  85;


$$
NJZ001>014-171900-
NORTHERN NEW JERSEY

CITY           SKY/WX    TMP DP  RH WIND       PRES   REMARKS
SUSSEX         SUNNY     81  63  54 VRB3      30.03F
ANDOVER*         N/A     79  61  53 VRB5      30.03F
MORRISTOWN     MOSUNNY   82  61  47 SE5       30.03F
NEWARK         PTSUNNY   79  61  53 S10       30.03F
TETERBORO      SUNNY     83  62  49 S9        30.00F
CALDWELL       MOSUNNY   82  62  50 CALM      30.02F
SOMERVILLE     MOSUNNY   82  64  54 S7        30.01F
ALLAIRE*       SUNNY     79  64  60 E10       30.05F
TOMS RIVER*    SUNNY     83  70  64 E10       30.03F

$$
PAZ043-044-047-054-055-060>062-066>071-171900-
EASTERN PENNSYLVANIA

CITY           SKY/WX    TMP DP  RH WIND       PRES   REMARKS
PHILADELPHIA   MOSUNNY   87  66  49 S7        30.00F
6HR MIN TEMP:  73; 6HR MAX TEMP:  88;

NORTH PHILA    SUNNY     87  66  49 CALM      30.02F
BLUE BELL*     SUNNY     82  66  57 SE6       30.02F
DOYLESTOWN     SUNNY     82  66  58 VRB5      30.01F
QUAKERTOWN*    MOSUNNY   84  66  54 S7        30.03F
PERKASIE*      FAIR      82  66  57 SE5       30.03F
POTTSTOWN      SUNNY     83  65  54 VRB3      30.02F
LANCASTER      MOSUNNY   85  71  63 SE9       30.00F HX  90
COATESVILLE    MOSUNNY   82  68  61 CALM      30.03F
READING        MOSUNNY   86  70  58 VRB3      29.99F HX  90
6HR MIN TEMP:  67; 6HR MAX TEMP:  86;

ALLENTOWN      CLOUDY    84  64  50 CALM      30.02F
6HR MIN TEMP:  69; 6HR MAX TEMP:  85;

MOUNT POCONO   MOSUNNY   75  63  66 S10       30.08F
6HR MIN TEMP:  63; 6HR MAX TEMP:  76;

HAZLETON         N/A     82  61  47 SE7       30.08F
LEHIGHTON      FAIR      81  63  54 CALM      30.02F
WILKES BARRE   PTSUNNY   83  62  49 VRB6      30.01F

$$
DEZALL-MDZ008-012-015-019-020-171900-
DELAWARE AND EASTERN MARYLAND

CITY           SKY/WX    TMP DP  RH WIND       PRES   REMARKS
WILMINGTON     SUNNY     85  67  54 S9        30.01F
6HR MIN TEMP:  73; 6HR MAX TEMP:  86;

DOVER          PTSUNNY   82  72  69 E10       29.98F
GEORGETOWN     SUNNY     86  71  60 S9        30.01F HX  91
6HR MIN TEMP:  77; 6HR MAX TEMP:  86;

EASTON         MOSUNNY   90  72  55 S9        30.03F HX  96
ABERDEEN       PTSUNNY   84  75  72 SE5       30.00F HX  92
PATUXENT       PTSUNNY   83  76  79 SE14G20   30.00F HX  91
OCEAN CITY     SUNNY     83  70  64 SW7       30.03F
WALLOPS ISLAND PTSUNNY   82  77  84 SE10      30.04S HX  90
CAMBRIDGE      PTSUNNY   84  72  65 S8G14     30.01S
SALISBURY      SUNNY     84  74  71 SE10      30.02F HX  91

$$
PAZ001-021-NYZ056-072-MDZ011-DCZ001-171900-
OTHER NEARBY LOCATIONS

CITY           SKY/WX    TMP DP  RH WIND       PRES   REMARKS
HARRISBURG     PTSUNNY   85  72  65 SE6       29.98F HX  91
STATE COLLEGE  MOSUNNY   82  68  61 S9        30.00F
WILLIAMSPORT   MOSUNNY   84  66  54 SE7       29.98F
BINGHAMTON     PTSUNNY   74  59  59 S6        30.04F
NEW YORK CITY  SUNNY     82  61  48 VRB3      30.05F
BALTIMORE      MOSUNNY   85  75  72 CALM      29.97F HX  93
WASHINGTON DC  PTSUNNY   87  77  72 S9        29.98F HX  99

$$




USA.gov is the U.S. government's official web portal to all federal, state and local government web resources and services.